Year,Month,Day,Hour,Minute,Value (Times are PST for temperature in C)
2010,08,17,00,00,19.40
2010,08,17,00,01,19.40
2010,08,17,00,02,19.30
2010,08,17,00,03,19.30
2010,08,17,00,04,19.20
2010,08,17,00,05,19.20
2010,08,17,00,06,19.20
2010,08,17,00,07,19.10
2010,08,17,00,08,19.10
2010,08,17,00,09,19.10
2010,08,17,00,10,19.00
2010,08,17,00,11,19.00
2010,08,17,00,12,19.00
2010,08,17,00,13,19.00
2010,08,17,00,14,19.00
2010,08,17,00,15,19.10
2010,08,17,00,16,19.20
2010,08,17,00,17,19.30
2010,08,17,00,18,19.40
2010,08,17,00,19,19.50
2010,08,17,00,20,19.60
2010,08,17,00,21,19.80
2010,08,17,00,22,19.90
2010,08,17,00,23,20.10
2010,08,17,00,24,20.20
2010,08,17,00,25,20.40
2010,08,17,00,26,20.70
2010,08,17,00,27,20.90
2010,08,17,00,28,21.10
2010,08,17,00,29,21.30
2010,08,17,00,30,21.60
2010,08,17,00,31,21.80
2010,08,17,00,32,22.10
2010,08,17,00,33,22.30
2010,08,17,00,34,22.50
2010,08,17,00,35,22.70
2010,08,17,00,36,22.80
2010,08,17,00,37,23.00
2010,08,17,00,38,23.10
2010,08,17,00,39,23.20
2010,08,17,00,40,23.30
2010,08,17,00,41,23.30
2010,08,17,00,42,23.40
2010,08,17,00,43,23.40
2010,08,17,00,44,23.40
2010,08,17,00,45,23.40
2010,08,17,00,46,23.40
2010,08,17,00,47,23.40
2010,08,17,00,48,23.40
2010,08,17,00,49,23.40
2010,08,17,00,50,23.40
2010,08,17,00,51,23.40
2010,08,17,00,52,23.30
2010,08,17,00,53,23.30
2010,08,17,00,54,23.30
2010,08,17,00,55,23.20
2010,08,17,00,56,23.20
2010,08,17,00,57,23.10
2010,08,17,00,58,23.10
2010,08,17,00,59,23.00
2010,08,17,01,00,23.00
2010,08,17,01,01,22.90
2010,08,17,01,02,22.90
2010,08,17,01,03,22.80
2010,08,17,01,04,22.80
2010,08,17,01,05,22.80
2010,08,17,01,06,22.70
2010,08,17,01,07,22.60
2010,08,17,01,08,22.60
2010,08,17,01,09,22.60
2010,08,17,01,10,22.50
2010,08,17,01,11,22.50
2010,08,17,01,12,22.40
2010,08,17,01,13,22.40
2010,08,17,01,14,22.30
2010,08,17,01,15,22.20
2010,08,17,01,16,22.20
2010,08,17,01,17,22.10
2010,08,17,01,18,22.10
2010,08,17,01,19,22.10
2010,08,17,01,20,22.10
2010,08,17,01,21,22.00
2010,08,17,01,22,22.00
2010,08,17,01,23,22.00
2010,08,17,01,24,22.00
2010,08,17,01,25,22.00
2010,08,17,01,26,22.00
2010,08,17,01,27,22.00
2010,08,17,01,28,22.10
2010,08,17,01,29,22.10
2010,08,17,01,30,22.10
2010,08,17,01,31,22.10
2010,08,17,01,32,22.20
2010,08,17,01,33,22.20
2010,08,17,01,34,22.20
2010,08,17,01,35,22.20
2010,08,17,01,36,22.20
2010,08,17,01,37,22.20
2010,08,17,01,38,22.10
2010,08,17,01,39,22.10
2010,08,17,01,40,22.00
2010,08,17,01,41,22.00
2010,08,17,01,42,21.90
2010,08,17,01,43,21.90
2010,08,17,01,44,21.90
2010,08,17,01,45,22.00
2010,08,17,01,46,22.00
2010,08,17,01,47,22.10
2010,08,17,01,48,22.10
2010,08,17,01,49,22.20
2010,08,17,01,50,22.20
2010,08,17,01,51,22.30
2010,08,17,01,52,22.30
2010,08,17,01,53,22.30
2010,08,17,01,54,22.30
2010,08,17,01,55,22.30
2010,08,17,01,56,22.30
2010,08,17,01,57,22.30
2010,08,17,01,58,22.30
2010,08,17,01,59,22.20
2010,08,17,02,00,22.10
2010,08,17,02,01,22.00
2010,08,17,02,02,21.90
2010,08,17,02,03,21.80
2010,08,17,02,04,21.60
2010,08,17,02,05,21.40
2010,08,17,02,06,21.20
2010,08,17,02,07,21.00
2010,08,17,02,08,20.80
2010,08,17,02,09,20.60
2010,08,17,02,10,20.50
2010,08,17,02,11,20.40
2010,08,17,02,12,20.30
2010,08,17,02,13,20.20
2010,08,17,02,14,20.00
2010,08,17,02,15,19.90
2010,08,17,02,16,19.90
2010,08,17,02,17,19.80
2010,08,17,02,18,19.70
2010,08,17,02,19,19.60
2010,08,17,02,20,19.50
2010,08,17,02,21,19.40
2010,08,17,02,22,19.30
2010,08,17,02,23,19.20
2010,08,17,02,24,19.10
2010,08,17,02,25,19.00
2010,08,17,02,26,19.00
2010,08,17,02,27,18.90
2010,08,17,02,28,18.90
2010,08,17,02,29,18.90
2010,08,17,02,30,19.00
2010,08,17,02,31,19.10
2010,08,17,02,32,19.10
2010,08,17,02,33,19.10
2010,08,17,02,34,19.20
2010,08,17,02,35,19.20
2010,08,17,02,36,19.30
2010,08,17,02,37,19.30
2010,08,17,02,38,19.40
2010,08,17,02,39,19.40
2010,08,17,02,40,19.40
2010,08,17,02,41,19.30
2010,08,17,02,42,19.30
2010,08,17,02,43,19.20
2010,08,17,02,44,19.20
2010,08,17,02,45,19.10
2010,08,17,02,46,19.00
2010,08,17,02,47,18.90
2010,08,17,02,48,18.80
2010,08,17,02,49,18.70
2010,08,17,02,50,18.60
2010,08,17,02,51,18.60
2010,08,17,02,52,18.50
2010,08,17,02,53,18.50
2010,08,17,02,54,18.40
2010,08,17,02,55,18.40
2010,08,17,02,56,18.40
2010,08,17,02,57,18.40
2010,08,17,02,58,18.30
2010,08,17,02,59,18.30
2010,08,17,03,00,18.30
2010,08,17,03,01,18.20
2010,08,17,03,02,18.20
2010,08,17,03,03,18.10
2010,08,17,03,04,18.10
2010,08,17,03,05,18.00
2010,08,17,03,06,18.00
2010,08,17,03,07,17.90
2010,08,17,03,08,17.90
2010,08,17,03,09,17.80
2010,08,17,03,10,17.80
2010,08,17,03,11,17.70
2010,08,17,03,12,17.70
2010,08,17,03,13,17.60
2010,08,17,03,14,17.60
2010,08,17,03,15,17.50
2010,08,17,03,16,17.50
2010,08,17,03,17,17.40
2010,08,17,03,18,17.40
2010,08,17,03,19,17.40
2010,08,17,03,20,17.40
2010,08,17,03,21,17.30
2010,08,17,03,22,17.30
2010,08,17,03,23,17.30
2010,08,17,03,24,17.30
2010,08,17,03,25,17.30
2010,08,17,03,26,17.30
2010,08,17,03,27,17.30
2010,08,17,03,28,17.30
2010,08,17,03,29,17.20
2010,08,17,03,30,17.20
2010,08,17,03,31,17.20
2010,08,17,03,32,17.20
2010,08,17,03,33,17.10
2010,08,17,03,34,17.10
2010,08,17,03,35,17.10
2010,08,17,03,36,17.00
2010,08,17,03,37,17.00
2010,08,17,03,38,16.90
2010,08,17,03,39,16.90
2010,08,17,03,40,16.90
2010,08,17,03,41,16.90
2010,08,17,03,42,16.80
2010,08,17,03,43,16.80
2010,08,17,03,44,16.80
2010,08,17,03,45,16.80
2010,08,17,03,46,16.70
2010,08,17,03,47,16.70
2010,08,17,03,48,16.70
2010,08,17,03,49,16.70
2010,08,17,03,50,16.70
2010,08,17,03,51,16.70
2010,08,17,03,52,16.70
2010,08,17,03,53,16.70
2010,08,17,03,54,16.70
2010,08,17,03,55,16.60
2010,08,17,03,56,16.60
2010,08,17,03,57,16.60
2010,08,17,03,58,16.60
2010,08,17,03,59,16.60
2010,08,17,04,00,16.60
2010,08,17,04,01,16.60
2010,08,17,04,02,16.60
2010,08,17,04,03,16.50
2010,08,17,04,04,16.50
2010,08,17,04,05,16.50
2010,08,17,04,06,16.50
2010,08,17,04,07,16.40
2010,08,17,04,08,16.40
2010,08,17,04,09,16.40
2010,08,17,04,10,16.40
2010,08,17,04,11,16.40
2010,08,17,04,12,16.40
2010,08,17,04,13,16.40
2010,08,17,04,14,16.40
2010,08,17,04,15,16.40
2010,08,17,04,16,16.40
2010,08,17,04,17,16.40
2010,08,17,04,18,16.40
2010,08,17,04,19,16.40
2010,08,17,04,20,16.30
2010,08,17,04,21,16.30
2010,08,17,04,22,16.30
2010,08,17,04,23,16.30
2010,08,17,04,24,16.30
2010,08,17,04,25,16.30
2010,08,17,04,26,16.20
2010,08,17,04,27,16.20
2010,08,17,04,28,16.20
2010,08,17,04,29,16.20
2010,08,17,04,30,16.20
2010,08,17,04,31,16.20
2010,08,17,04,32,16.20
2010,08,17,04,33,16.20
2010,08,17,04,34,16.10
2010,08,17,04,35,16.10
2010,08,17,04,36,16.10
2010,08,17,04,37,16.10
2010,08,17,04,38,16.10
2010,08,17,04,39,16.00
2010,08,17,04,40,16.00
2010,08,17,04,41,16.00
2010,08,17,04,42,16.00
2010,08,17,04,43,15.90
2010,08,17,04,44,15.90
2010,08,17,04,45,15.90
2010,08,17,04,46,15.90
2010,08,17,04,47,15.90
2010,08,17,04,48,15.90
2010,08,17,04,49,15.90
2010,08,17,04,50,15.90
2010,08,17,04,51,15.80
2010,08,17,04,52,15.80
2010,08,17,04,53,15.80
2010,08,17,04,54,15.80
2010,08,17,04,55,15.80
2010,08,17,04,56,15.70
2010,08,17,04,57,15.70
2010,08,17,04,58,15.70
2010,08,17,04,59,15.60
2010,08,17,05,00,15.60
2010,08,17,05,01,15.60
2010,08,17,05,02,15.60
2010,08,17,05,03,15.50
2010,08,17,05,04,15.50
2010,08,17,05,05,15.50
2010,08,17,05,06,15.40
2010,08,17,05,07,15.40
2010,08,17,05,08,15.40
2010,08,17,05,09,15.40
2010,08,17,05,10,15.30
2010,08,17,05,11,15.30
2010,08,17,05,12,15.30
2010,08,17,05,13,15.30
2010,08,17,05,14,15.30
2010,08,17,05,15,15.30
2010,08,17,05,16,15.30
2010,08,17,05,17,15.30
2010,08,17,05,18,15.30
2010,08,17,05,19,15.30
2010,08,17,05,20,15.30
2010,08,17,05,21,15.30
2010,08,17,05,22,15.30
2010,08,17,05,23,15.30
2010,08,17,05,24,15.30
2010,08,17,05,25,15.30
2010,08,17,05,26,15.30
2010,08,17,05,27,15.20
2010,08,17,05,28,15.20
2010,08,17,05,29,15.20
2010,08,17,05,30,15.20
2010,08,17,05,31,15.20
2010,08,17,05,32,15.10
2010,08,17,05,33,15.10
2010,08,17,05,34,15.10
2010,08,17,05,35,15.10
2010,08,17,05,36,15.00
2010,08,17,05,37,15.00
2010,08,17,05,38,15.00
2010,08,17,05,39,15.00
2010,08,17,05,40,15.00
2010,08,17,05,41,15.00
2010,08,17,05,42,15.00
2010,08,17,05,43,15.00
2010,08,17,05,44,15.00
2010,08,17,05,45,15.00
2010,08,17,05,46,15.00
2010,08,17,05,47,15.00
2010,08,17,05,48,14.90
2010,08,17,05,49,14.90
2010,08,17,05,50,14.80
2010,08,17,05,51,14.80
2010,08,17,05,52,14.80
2010,08,17,05,53,14.70
2010,08,17,05,54,14.70
2010,08,17,05,55,14.70
2010,08,17,05,56,14.70
2010,08,17,05,57,14.60
2010,08,17,05,58,14.60
2010,08,17,05,59,14.60
2010,08,17,06,00,14.60
2010,08,17,06,01,14.60
2010,08,17,06,02,14.60
2010,08,17,06,03,14.60
2010,08,17,06,04,14.70
2010,08,17,06,05,14.70
2010,08,17,06,06,14.70
2010,08,17,06,07,14.70
2010,08,17,06,08,14.70
2010,08,17,06,09,14.80
2010,08,17,06,10,14.80
2010,08,17,06,11,14.80
2010,08,17,06,12,14.90
2010,08,17,06,13,14.90
2010,08,17,06,14,15.00
2010,08,17,06,15,15.00
2010,08,17,06,16,15.00
2010,08,17,06,17,15.00
2010,08,17,06,18,15.10
2010,08,17,06,19,15.20
2010,08,17,06,20,15.20
2010,08,17,06,21,15.30
2010,08,17,06,22,15.40
2010,08,17,06,23,15.50
2010,08,17,06,24,15.60
2010,08,17,06,25,15.70
2010,08,17,06,26,15.80
2010,08,17,06,27,15.90
2010,08,17,06,28,15.90
2010,08,17,06,29,16.00
2010,08,17,06,30,16.10
2010,08,17,06,31,16.10
2010,08,17,06,32,16.20
2010,08,17,06,33,16.30
2010,08,17,06,34,16.40
2010,08,17,06,35,16.60
2010,08,17,06,36,16.70
2010,08,17,06,37,16.80
2010,08,17,06,38,16.90
2010,08,17,06,39,17.10
2010,08,17,06,40,17.20
2010,08,17,06,41,17.30
2010,08,17,06,42,17.40
2010,08,17,06,43,17.50
2010,08,17,06,44,17.50
2010,08,17,06,45,17.60
2010,08,17,06,46,17.60
2010,08,17,06,47,17.70
2010,08,17,06,48,17.70
2010,08,17,06,49,17.80
2010,08,17,06,50,17.90
2010,08,17,06,51,17.90
2010,08,17,06,52,18.00
2010,08,17,06,53,18.10
2010,08,17,06,54,18.10
2010,08,17,06,55,18.20
2010,08,17,06,56,18.20
2010,08,17,06,57,18.20
2010,08,17,06,58,18.20
2010,08,17,06,59,18.20
2010,08,17,07,00,18.20
2010,08,17,07,01,18.20
2010,08,17,07,02,18.10
2010,08,17,07,03,18.00
2010,08,17,07,04,18.00
2010,08,17,07,05,17.90
2010,08,17,07,06,17.80
2010,08,17,07,07,17.80
2010,08,17,07,08,17.70
2010,08,17,07,09,17.70
2010,08,17,07,10,17.70
2010,08,17,07,11,17.70
2010,08,17,07,12,17.70
2010,08,17,07,13,17.70
2010,08,17,07,14,17.70
2010,08,17,07,15,17.80
2010,08,17,07,16,17.80
2010,08,17,07,17,17.90
2010,08,17,07,18,17.90
2010,08,17,07,19,18.00
2010,08,17,07,20,18.00
2010,08,17,07,21,18.10
2010,08,17,07,22,18.10
2010,08,17,07,23,18.20
2010,08,17,07,24,18.20
2010,08,17,07,25,18.30
2010,08,17,07,26,18.40
2010,08,17,07,27,18.50
2010,08,17,07,28,18.60
2010,08,17,07,29,18.70
2010,08,17,07,30,18.80
2010,08,17,07,31,18.90
2010,08,17,07,32,18.90
2010,08,17,07,33,19.00
2010,08,17,07,34,19.20
2010,08,17,07,35,19.30
2010,08,17,07,36,19.40
2010,08,17,07,37,19.50
2010,08,17,07,38,19.60
2010,08,17,07,39,19.70
2010,08,17,07,40,19.80
2010,08,17,07,41,19.90
2010,08,17,07,42,19.90
2010,08,17,07,43,20.00
2010,08,17,07,44,20.00
2010,08,17,07,45,20.10
2010,08,17,07,46,20.20
2010,08,17,07,47,20.20
2010,08,17,07,48,20.30
2010,08,17,07,49,20.30
2010,08,17,07,50,20.40
2010,08,17,07,51,20.40
2010,08,17,07,52,20.50
2010,08,17,07,53,20.60
2010,08,17,07,54,20.70
2010,08,17,07,55,20.70
2010,08,17,07,56,20.80
2010,08,17,07,57,20.80
2010,08,17,07,58,20.80
2010,08,17,07,59,20.90
2010,08,17,08,00,20.90
2010,08,17,08,01,21.00
2010,08,17,08,02,21.00
2010,08,17,08,03,21.00
2010,08,17,08,04,21.00
2010,08,17,08,05,21.00
2010,08,17,08,06,21.00
2010,08,17,08,07,21.00
2010,08,17,08,08,21.00
2010,08,17,08,09,21.00
2010,08,17,08,10,21.00
2010,08,17,08,11,21.00
2010,08,17,08,12,21.10
2010,08,17,08,13,21.00
2010,08,17,08,14,21.10
2010,08,17,08,15,21.10
2010,08,17,08,16,21.10
2010,08,17,08,17,21.10
2010,08,17,08,18,21.10
2010,08,17,08,19,21.00
2010,08,17,08,20,21.10
2010,08,17,08,21,21.00
2010,08,17,08,22,21.00
2010,08,17,08,23,21.00
2010,08,17,08,24,21.00
2010,08,17,08,25,21.00
2010,08,17,08,26,21.00
2010,08,17,08,27,21.00
2010,08,17,08,28,21.00
2010,08,17,08,29,21.00
2010,08,17,08,30,21.00
2010,08,17,08,31,21.10
2010,08,17,08,32,21.10
2010,08,17,08,33,21.10
2010,08,17,08,34,21.20
2010,08,17,08,35,21.20
2010,08,17,08,36,21.10
2010,08,17,08,37,21.10
2010,08,17,08,38,21.20
2010,08,17,08,39,21.20
2010,08,17,08,40,21.20
2010,08,17,08,41,21.20
2010,08,17,08,42,21.20
2010,08,17,08,43,21.10
2010,08,17,08,44,21.10
2010,08,17,08,45,21.10
2010,08,17,08,46,21.10
2010,08,17,08,47,21.10
2010,08,17,08,48,21.20
2010,08,17,08,49,21.20
2010,08,17,08,50,21.20
2010,08,17,08,51,21.20
2010,08,17,08,52,21.20
2010,08,17,08,53,21.30
2010,08,17,08,54,21.30
2010,08,17,08,55,21.40
2010,08,17,08,56,21.40
2010,08,17,08,57,21.40
2010,08,17,08,58,21.40
2010,08,17,08,59,21.40
2010,08,17,09,00,21.40
2010,08,17,09,01,21.50
2010,08,17,09,02,21.50
2010,08,17,09,03,21.50
2010,08,17,09,04,21.50
2010,08,17,09,05,21.60
2010,08,17,09,06,21.60
2010,08,17,09,07,21.60
2010,08,17,09,08,21.70
2010,08,17,09,09,21.70
2010,08,17,09,10,21.80
2010,08,17,09,11,21.80
2010,08,17,09,12,21.80
2010,08,17,09,13,21.80
2010,08,17,09,14,21.90
2010,08,17,09,15,21.90
2010,08,17,09,16,22.00
2010,08,17,09,17,22.00
2010,08,17,09,18,22.10
2010,08,17,09,19,22.10
2010,08,17,09,20,22.10
2010,08,17,09,21,22.20
2010,08,17,09,22,22.30
2010,08,17,09,23,22.30
2010,08,17,09,24,22.40
2010,08,17,09,25,22.40
2010,08,17,09,26,22.40
2010,08,17,09,27,22.50
2010,08,17,09,28,22.50
2010,08,17,09,29,22.50
2010,08,17,09,30,22.50
2010,08,17,09,31,22.50
2010,08,17,09,32,22.60
2010,08,17,09,33,22.50
2010,08,17,09,34,22.50
2010,08,17,09,35,22.50
2010,08,17,09,36,22.40
2010,08,17,09,37,22.30
2010,08,17,09,38,22.30
2010,08,17,09,39,22.20
2010,08,17,09,40,22.20
2010,08,17,09,41,22.20
2010,08,17,09,42,22.10
2010,08,17,09,43,22.10
2010,08,17,09,44,22.10
2010,08,17,09,45,22.10
2010,08,17,09,46,22.00
2010,08,17,09,47,22.00
2010,08,17,09,48,21.90
2010,08,17,09,49,21.80
2010,08,17,09,50,21.80
2010,08,17,09,51,21.80
2010,08,17,09,52,21.80
2010,08,17,09,53,21.90
2010,08,17,09,54,21.90
2010,08,17,09,55,21.90
2010,08,17,09,56,21.90
2010,08,17,09,57,21.90
2010,08,17,09,58,21.90
2010,08,17,09,59,21.90
2010,08,17,10,00,21.90
2010,08,17,10,01,21.90
2010,08,17,10,02,21.90
2010,08,17,10,03,21.80
2010,08,17,10,04,21.80
2010,08,17,10,05,21.80
2010,08,17,10,06,21.70
2010,08,17,10,07,21.70
2010,08,17,10,08,21.60
2010,08,17,10,09,21.60
2010,08,17,10,10,21.60
2010,08,17,10,11,21.60
2010,08,17,10,12,21.60
2010,08,17,10,13,21.60
2010,08,17,10,14,21.60
2010,08,17,10,15,21.60
2010,08,17,10,16,21.60
2010,08,17,10,17,21.60
2010,08,17,10,18,21.60
2010,08,17,10,19,21.60
2010,08,17,10,20,21.70
2010,08,17,10,21,21.70
2010,08,17,10,22,21.70
2010,08,17,10,23,21.70
2010,08,17,10,24,21.70
2010,08,17,10,25,21.80
2010,08,17,10,26,21.80
2010,08,17,10,27,21.80
2010,08,17,10,28,21.70
2010,08,17,10,29,21.70
2010,08,17,10,30,21.70
2010,08,17,10,31,21.70
2010,08,17,10,32,21.70
2010,08,17,10,33,21.70
2010,08,17,10,34,21.70
2010,08,17,10,35,21.70
2010,08,17,10,36,21.70
2010,08,17,10,37,21.70
2010,08,17,10,38,21.80
2010,08,17,10,39,21.70
2010,08,17,10,40,21.70
2010,08,17,10,41,21.70
2010,08,17,10,42,21.70
2010,08,17,10,43,21.60
2010,08,17,10,44,21.60
2010,08,17,10,45,21.60
2010,08,17,10,46,21.50
2010,08,17,10,47,21.50
2010,08,17,10,48,21.40
2010,08,17,10,49,21.40
2010,08,17,10,50,21.40
2010,08,17,10,51,21.40
2010,08,17,10,52,21.40
2010,08,17,10,53,21.40
2010,08,17,10,54,21.50
2010,08,17,10,55,21.40
2010,08,17,10,56,21.40
2010,08,17,10,57,21.40
2010,08,17,10,58,21.40
2010,08,17,10,59,21.40
2010,08,17,11,00,21.40
2010,08,17,11,01,21.40
2010,08,17,11,02,21.40
2010,08,17,11,03,21.30
2010,08,17,11,04,21.40
2010,08,17,11,05,21.40
2010,08,17,11,06,21.40
2010,08,17,11,07,21.40
2010,08,17,11,08,21.40
2010,08,17,11,09,21.30
2010,08,17,11,10,21.30
2010,08,17,11,11,21.30
2010,08,17,11,12,21.30
2010,08,17,11,13,21.30
2010,08,17,11,14,21.40
2010,08,17,11,15,21.40
2010,08,17,11,16,21.40
2010,08,17,11,17,21.40
2010,08,17,11,18,21.40
2010,08,17,11,19,21.40
2010,08,17,11,20,21.40
2010,08,17,11,21,21.40
2010,08,17,11,22,21.50
2010,08,17,11,23,21.50
2010,08,17,11,24,21.50
2010,08,17,11,25,21.60
2010,08,17,11,26,21.60
2010,08,17,11,27,21.60
2010,08,17,11,28,21.60
2010,08,17,11,29,21.60
2010,08,17,11,30,21.60
2010,08,17,11,31,21.60
2010,08,17,11,32,21.60
2010,08,17,11,33,21.60
2010,08,17,11,34,21.60
2010,08,17,11,35,21.70
2010,08,17,11,36,21.70
2010,08,17,11,37,21.70
2010,08,17,11,38,21.70
2010,08,17,11,39,21.70
2010,08,17,11,40,21.70
2010,08,17,11,41,21.60
2010,08,17,11,42,21.60
2010,08,17,11,43,21.60
2010,08,17,11,44,21.60
2010,08,17,11,45,21.70
2010,08,17,11,46,21.70
2010,08,17,11,47,21.70
2010,08,17,11,48,21.80
2010,08,17,11,49,21.80
2010,08,17,11,50,21.80
2010,08,17,11,51,21.80
2010,08,17,11,52,21.80
2010,08,17,11,53,21.90
2010,08,17,11,54,22.00
2010,08,17,11,55,22.10
2010,08,17,11,56,22.10
2010,08,17,11,57,22.10
2010,08,17,11,58,22.10
2010,08,17,11,59,22.10
2010,08,17,12,00,22.10
2010,08,17,12,01,22.10
2010,08,17,12,02,22.10
2010,08,17,12,03,22.10
2010,08,17,12,04,22.10
2010,08,17,12,05,22.20
2010,08,17,12,06,22.20
2010,08,17,12,07,22.30
2010,08,17,12,08,22.30
2010,08,17,12,09,22.40
2010,08,17,12,10,22.40
2010,08,17,12,11,22.40
2010,08,17,12,12,22.40
2010,08,17,12,13,22.40
2010,08,17,12,14,22.30
2010,08,17,12,15,22.30
2010,08,17,12,16,22.40
2010,08,17,12,17,22.40
2010,08,17,12,18,22.40
2010,08,17,12,19,22.40
2010,08,17,12,20,22.40
2010,08,17,12,21,22.40
2010,08,17,12,22,22.40
2010,08,17,12,23,22.50
2010,08,17,12,24,22.50
2010,08,17,12,25,22.50
2010,08,17,12,26,22.50
2010,08,17,12,27,22.50
2010,08,17,12,28,22.50
2010,08,17,12,29,22.60
2010,08,17,12,30,22.50
2010,08,17,12,31,22.60
2010,08,17,12,32,22.50
2010,08,17,12,33,22.50
2010,08,17,12,34,22.50
2010,08,17,12,35,22.40
2010,08,17,12,36,22.40
2010,08,17,12,37,22.30
2010,08,17,12,38,22.30
2010,08,17,12,39,22.30
2010,08,17,12,40,22.40
2010,08,17,12,41,22.30
2010,08,17,12,42,22.30
2010,08,17,12,43,22.30
2010,08,17,12,44,22.30
2010,08,17,12,45,22.30
2010,08,17,12,46,22.30
2010,08,17,12,47,22.30
2010,08,17,12,48,22.40
2010,08,17,12,49,22.40
2010,08,17,12,50,22.40
2010,08,17,12,51,22.40
2010,08,17,12,52,22.40
2010,08,17,12,53,22.40
2010,08,17,12,54,22.40
2010,08,17,12,55,22.40
2010,08,17,12,56,22.40
2010,08,17,12,57,22.40
2010,08,17,12,58,22.50
2010,08,17,12,59,22.50
2010,08,17,13,00,22.60
2010,08,17,13,01,22.60
2010,08,17,13,02,22.70
2010,08,17,13,03,22.70
2010,08,17,13,04,22.70
2010,08,17,13,05,22.80
2010,08,17,13,06,22.80
2010,08,17,13,07,22.70
2010,08,17,13,08,22.70
2010,08,17,13,09,22.70
2010,08,17,13,10,22.60
2010,08,17,13,11,22.70
2010,08,17,13,12,22.70
2010,08,17,13,13,22.70
2010,08,17,13,14,22.70
2010,08,17,13,15,22.70
2010,08,17,13,16,22.70
2010,08,17,13,17,22.70
2010,08,17,13,18,22.70
2010,08,17,13,19,22.70
2010,08,17,13,20,22.80
2010,08,17,13,21,22.90
2010,08,17,13,22,22.90
2010,08,17,13,23,22.90
2010,08,17,13,24,23.00
2010,08,17,13,25,23.10
2010,08,17,13,26,23.10
2010,08,17,13,27,23.10
2010,08,17,13,28,23.10
2010,08,17,13,29,23.10
2010,08,17,13,30,23.10
2010,08,17,13,31,23.00
2010,08,17,13,32,23.10
2010,08,17,13,33,23.10
2010,08,17,13,34,23.10
2010,08,17,13,35,23.10
2010,08,17,13,36,23.20
2010,08,17,13,37,23.20
2010,08,17,13,38,23.30
2010,08,17,13,39,23.40
2010,08,17,13,40,23.50
2010,08,17,13,41,23.60
2010,08,17,13,42,23.60
2010,08,17,13,43,23.70
2010,08,17,13,44,23.70
2010,08,17,13,45,23.80
2010,08,17,13,46,23.80
2010,08,17,13,47,23.80
2010,08,17,13,48,23.80
2010,08,17,13,49,23.90
2010,08,17,13,50,23.90
2010,08,17,13,51,23.90
2010,08,17,13,52,23.90
2010,08,17,13,53,23.90
2010,08,17,13,54,24.00
2010,08,17,13,55,23.90
2010,08,17,13,56,23.90
2010,08,17,13,57,24.00
2010,08,17,13,58,24.00
2010,08,17,13,59,24.00
2010,08,17,14,00,23.90
2010,08,17,14,01,23.90
2010,08,17,14,02,23.90
2010,08,17,14,03,23.90
2010,08,17,14,04,23.90
2010,08,17,14,05,23.90
2010,08,17,14,06,23.80
2010,08,17,14,07,23.80
2010,08,17,14,08,23.80
2010,08,17,14,09,23.80
2010,08,17,14,10,23.80
2010,08,17,14,11,23.80
2010,08,17,14,12,23.80
2010,08,17,14,13,23.70
2010,08,17,14,14,23.70
2010,08,17,14,15,23.70
2010,08,17,14,16,23.60
2010,08,17,14,17,23.70
2010,08,17,14,18,23.70
2010,08,17,14,19,23.70
2010,08,17,14,20,23.70
2010,08,17,14,21,23.80
2010,08,17,14,22,23.90
2010,08,17,14,23,24.00
2010,08,17,14,24,24.00
2010,08,17,14,25,24.10
2010,08,17,14,26,24.10
2010,08,17,14,27,24.10
2010,08,17,14,28,24.10
2010,08,17,14,29,24.10
2010,08,17,14,30,24.20
2010,08,17,14,31,24.20
2010,08,17,14,32,24.20
2010,08,17,14,33,24.30
2010,08,17,14,34,24.30
2010,08,17,14,35,24.40
2010,08,17,14,36,24.50
2010,08,17,14,37,24.50
2010,08,17,14,38,24.50
2010,08,17,14,39,24.60
2010,08,17,14,40,24.60
2010,08,17,14,41,24.60
2010,08,17,14,42,24.70
2010,08,17,14,43,24.70
2010,08,17,14,44,24.70
2010,08,17,14,45,24.70
2010,08,17,14,46,24.80
2010,08,17,14,47,24.80
2010,08,17,14,48,24.90
2010,08,17,14,49,24.90
2010,08,17,14,50,24.90
2010,08,17,14,51,24.90
2010,08,17,14,52,24.90
2010,08,17,14,53,24.90
2010,08,17,14,54,24.80
2010,08,17,14,55,24.90
2010,08,17,14,56,24.90
2010,08,17,14,57,24.90
2010,08,17,14,58,24.90
2010,08,17,14,59,24.90
2010,08,17,15,00,25.00
2010,08,17,15,01,25.00
2010,08,17,15,02,24.90
2010,08,17,15,03,24.90
2010,08,17,15,04,24.90
2010,08,17,15,05,24.90
2010,08,17,15,06,24.90
2010,08,17,15,07,24.90
2010,08,17,15,08,24.90
2010,08,17,15,09,24.80
2010,08,17,15,10,24.80
2010,08,17,15,11,24.80
2010,08,17,15,12,24.80
2010,08,17,15,13,24.70
2010,08,17,15,14,24.80
2010,08,17,15,15,24.80
2010,08,17,15,16,24.90
2010,08,17,15,17,24.90
2010,08,17,15,18,24.90
2010,08,17,15,19,24.90
2010,08,17,15,20,24.90
2010,08,17,15,21,24.90
2010,08,17,15,22,24.80
2010,08,17,15,23,24.80
2010,08,17,15,24,24.70
2010,08,17,15,25,24.70
2010,08,17,15,26,24.70
2010,08,17,15,27,24.70
2010,08,17,15,28,24.60
2010,08,17,15,29,24.60
2010,08,17,15,30,24.60
2010,08,17,15,31,24.50
2010,08,17,15,32,24.50
2010,08,17,15,33,24.60
2010,08,17,15,34,24.60
2010,08,17,15,35,24.60
2010,08,17,15,36,24.70
2010,08,17,15,37,24.80
2010,08,17,15,38,24.80
2010,08,17,15,39,24.80
2010,08,17,15,40,24.80
2010,08,17,15,41,24.70
2010,08,17,15,42,24.70
2010,08,17,15,43,24.80
2010,08,17,15,44,24.80
2010,08,17,15,45,24.80
2010,08,17,15,46,24.80
2010,08,17,15,47,24.90
2010,08,17,15,48,24.90
2010,08,17,15,49,24.90
2010,08,17,15,50,24.90
2010,08,17,15,51,25.00
2010,08,17,15,52,25.00
2010,08,17,15,53,25.00
2010,08,17,15,54,25.00
2010,08,17,15,55,25.10
2010,08,17,15,56,25.20
2010,08,17,15,57,25.30
2010,08,17,15,58,25.30
2010,08,17,15,59,25.30
2010,08,17,16,00,25.30
2010,08,17,16,01,25.30
2010,08,17,16,02,25.30
2010,08,17,16,03,25.40
2010,08,17,16,04,25.40
2010,08,17,16,05,25.50
2010,08,17,16,06,25.50
2010,08,17,16,07,25.60
2010,08,17,16,08,25.60
2010,08,17,16,09,25.60
2010,08,17,16,10,25.60
2010,08,17,16,11,25.50
2010,08,17,16,12,25.50
2010,08,17,16,13,25.50
2010,08,17,16,14,25.50
2010,08,17,16,15,25.50
2010,08,17,16,16,25.50
2010,08,17,16,17,25.50
2010,08,17,16,18,25.50
2010,08,17,16,19,25.60
2010,08,17,16,20,25.60
2010,08,17,16,21,25.70
2010,08,17,16,22,25.70
2010,08,17,16,23,25.70
2010,08,17,16,24,25.70
2010,08,17,16,25,25.80
2010,08,17,16,26,25.80
2010,08,17,16,27,25.80
2010,08,17,16,28,25.80
2010,08,17,16,29,25.90
2010,08,17,16,30,25.90
2010,08,17,16,31,25.90
2010,08,17,16,32,25.90
2010,08,17,16,33,25.90
2010,08,17,16,34,25.90
2010,08,17,16,35,25.80
2010,08,17,16,36,25.80
2010,08,17,16,37,25.80
2010,08,17,16,38,25.90
2010,08,17,16,39,25.90
2010,08,17,16,40,25.90
2010,08,17,16,41,25.90
2010,08,17,16,42,25.90
2010,08,17,16,43,26.00
2010,08,17,16,44,26.10
2010,08,17,16,45,26.10
2010,08,17,16,46,26.10
2010,08,17,16,47,26.10
2010,08,17,16,48,26.10
2010,08,17,16,49,26.10
2010,08,17,16,50,26.10
2010,08,17,16,51,26.10
2010,08,17,16,52,26.10
2010,08,17,16,53,26.10
2010,08,17,16,54,26.10
2010,08,17,16,55,26.10
2010,08,17,16,56,26.20
2010,08,17,16,57,26.20
2010,08,17,16,58,26.10
2010,08,17,16,59,26.10
2010,08,17,17,00,26.10
2010,08,17,17,01,26.10
2010,08,17,17,02,26.10
2010,08,17,17,03,26.10
2010,08,17,17,04,26.10
2010,08,17,17,05,26.10
2010,08,17,17,06,26.10
2010,08,17,17,07,26.10
2010,08,17,17,08,26.10
2010,08,17,17,09,26.10
2010,08,17,17,10,26.00
2010,08,17,17,11,25.90
2010,08,17,17,12,26.00
2010,08,17,17,13,26.00
2010,08,17,17,14,26.10
2010,08,17,17,15,26.20
2010,08,17,17,16,26.20
2010,08,17,17,17,26.30
2010,08,17,17,18,26.30
2010,08,17,17,19,26.40